Weather History for KGJT - April, 2012

Change the Weather History Date:

Thursday, April 12, 2012

  Actual Average Record
Temperature  
Mean Temperature 46 °F 50 °F  
Max Temperature 57 °F 64 °F 82 °F (1934)
Min Temperature 35 °F 37 °F 16 °F (1997)
Degree Days  
Heating Degree Days 19 15  
Month to date heating degree days 140 192  
Since 1 July heating degree days 4754 5224  
Cooling Degree Days 0 0  
Month to date cooling degree days 2 0  
Year to date cooling degree days 2 0  
Moisture  
Dew Point 32 °F    
Average Humidity 55    
Maximum Humidity 79    
Minimum Humidity 30    
Precipitation  
Precipitation 0.08 in 0.03 in 0.36 in (1960)
Month to date precipitation 0.13 0.39  
Year to date precipitation 1.13 2.43  
Snow  
Snow 0.00 in 0.00 in 3.10 in (1991)
Month to date snowfall T 0.6  
Since 1 July snowfall 8.2 18.7  
Snow Depth 0.00 in    
Sea Level Pressure  
Sea Level Pressure 29.78 in    
Wind  
Wind Speed 7 mph (North)    
Max Wind Speed 29 mph    
Max Gust Speed 35 mph    
Visibility 10 miles    
Events Rain    
T = Trace of Precipitation, MM = Missing Value Source: NWS Daily Summary

Daily Weather History Graph

Daily Weather History Graph

Search for Another Location

Airport or City:

Trip Planner

Search our weather history database for the weather conditions in past years. The results will help you decide how hot, cold, wet, or windy it might be!

Date:

Astronomy

Apr. 12, 2012 Rise Set
Actual Time 6:40 AM MDT 7:49 PM MDT
Civil Twilight 6:13 AM MDT 8:16 PM MDT
Nautical Twilight 5:40 AM MDT 8:49 PM MDT
Astronomical Twilight 5:06 AM MDT 9:23 PM MDT
Moon 1:37 AM MDT (4/12) 11:40 AM MDT (4/12)
Length of Visible Light 14h 03m
Length of Day
13h 08m
Waning Gibbous, 58% of the Moon is Illuminated
Apr 12
Waning Gibbous
Apr 13
Last Quarter
Apr 21
New
Apr 29
First Quarter
May 5
Full

Hourly Weather History & Observations

Time (MDT) Temp. Windchill Dew Point Humidity Pressure Visibility Wind Dir Wind Speed Gust Speed Precip Events Conditions
12:53 AM 48.2 °F - 24.8 °F 40% 29.88 in 10.0 mi North 11.5 mph - N/A   Clear
1:53 AM 51.1 °F - 26.1 °F 38% 29.73 in 10.0 mi North 12.7 mph - N/A   Mostly Cloudy
2:53 AM 50.0 °F - 28.0 °F 43% 29.71 in 10.0 mi WNW 5.8 mph - N/A   Scattered Clouds
3:53 AM 48.0 °F - 27.0 °F 44% 29.72 in 10.0 mi Calm Calm - N/A   Overcast
4:53 AM 48.0 °F - 27.0 °F 44% 29.71 in 10.0 mi ENE 6.9 mph - N/A   Overcast
5:53 AM 50.0 °F - 25.0 °F 38% 29.71 in 10.0 mi SSE 10.4 mph - N/A   Overcast
6:53 AM 48.0 °F - 30.0 °F 50% 29.75 in 10.0 mi NE 4.6 mph - 0.00 in   Overcast
7:53 AM 50.0 °F - 27.0 °F 41% 29.77 in 10.0 mi SSE 5.8 mph - N/A   Mostly Cloudy
8:53 AM 50.0 °F - 30.0 °F 46% 29.79 in 10.0 mi NW 11.5 mph - N/A   Mostly Cloudy
9:53 AM 50.0 °F - 30.0 °F 46% 29.81 in 10.0 mi NW 11.5 mph - N/A   Mostly Cloudy
10:53 AM 50.0 °F - 30.0 °F 46% 29.80 in 10.0 mi North 6.9 mph - N/A   Overcast
11:53 AM 53.1 °F - 28.0 °F 38% 29.78 in 10.0 mi Variable 3.5 mph - N/A   Clear
12:53 PM 55.0 °F - 25.0 °F 31% 29.77 in 10.0 mi Variable 3.5 mph - N/A   Overcast
1:53 PM 46.0 °F 44.8 °F 37.0 °F 71% 29.82 in 10.0 mi WNW 3.5 mph - 0.00 in Rain Light Rain
2:53 PM 46.0 °F 39.0 °F 37.9 °F 73% 29.82 in 5.0 mi SSE 17.3 mph - 0.01 in Rain Rain
3:00 PM 46.4 °F 40.1 °F 37.4 °F 71% 29.89 in 8.0 mi SSW 15.0 mph 26.5 mph 0.01 in Rain Light Rain
3:53 PM 48.0 °F - 37.0 °F 66% 29.78 in 10.0 mi ESE 10.4 mph - 0.01 in   Overcast
4:53 PM 48.0 °F - 37.0 °F 66% 29.78 in 10.0 mi North 5.8 mph - 0.01 in   Overcast
5:53 PM 46.9 °F - 37.9 °F 71% 29.77 in 10.0 mi NE 10.4 mph - 0.01 in   Overcast
6:53 PM 46.9 °F - 39.9 °F 77% 29.78 in 9.0 mi NE 9.2 mph - 0.02 in   Overcast
7:53 PM 48.0 °F - 32.0 °F 54% 29.75 in 10.0 mi Calm Calm - 0.02 in   Mostly Cloudy
8:53 PM 45.0 °F 41.8 °F 35.1 °F 68% 29.80 in 10.0 mi WNW 5.8 mph - N/A   Overcast
9:53 PM 46.0 °F - 32.0 °F 58% 29.82 in 10.0 mi Calm Calm - 0.00 in   Overcast
10:53 PM 42.1 °F 35.7 °F 36.0 °F 79% 29.87 in 10.0 mi NNW 11.5 mph - N/A   Overcast
11:53 PM 39.0 °F 34.0 °F 34.0 °F 82% 29.84 in 10.0 mi ENE 6.9 mph - N/A   Clear